Weather History for Spirit of St Louis, MO

Change the Weather History Date:

Monday, November 5, 2012

  Actual Average Record
Temperature  
Mean Temperature 43 °F -  
Max Temperature 44 °F 56 °F 80 °F (1999)
Min Temperature 42 °F 37 °F 28 °F (2004)
Degree Days  
Heating Degree Days 22    
Moisture  
Dew Point 38 °F    
Average Humidity 83    
Maximum Humidity 92    
Minimum Humidity 68    
Precipitation  
Precipitation 0.04 in - - ()
Sea Level Pressure  
Sea Level Pressure 30.10 in    
Wind  
Wind Speed 5 mph (East)    
Max Wind Speed 10 mph    
Max Gust Speed 16 mph    
Visibility 7 miles    
Events Rain    
Averages and records for this station are not official NWS values.
T = Trace of Precipitation, MM = Missing Value Source: NWS Daily Summary

Daily Weather History Graph

Daily Weather History Graph

Search for Another Location

Airport:

Trip Planner

Search our weather history database for the weather conditions in past years. The results will help you decide how hot, cold, wet, or windy it might be!

Date:

Astronomy

Nov. 05, 2012 Rise Set
Actual Time 6:34 AM CST 4:57 PM CST
Civil Twilight 6:06 AM CST 5:25 PM CST
Nautical Twilight 5:34 AM CST 5:57 PM CST
Astronomical Twilight 5:03 AM CST 6:28 PM CST
Moon 10:35 PM CST (11/5) 11:53 AM CST (11/5)
Length of Visible Light 11h 18m
Length of Day
10h 23m
Waning Gibbous, 62% of the Moon is Illuminated
Nov 5
Waning Gibbous
Nov 6
Last Quarter
Nov 13
New
Nov 20
First Quarter
Nov 28
Full

Hourly Weather History & Observations

Time (CST) Temp. Windchill Dew Point Humidity Pressure Visibility Wind Dir Wind Speed Gust Speed Precip Events Conditions
12:54 AM 43.0 °F - 35.1 °F 74% 30.17 in 10.0 mi Calm Calm - N/A   Overcast
1:54 AM 43.0 °F 40.3 °F 34.0 °F 71% 30.16 in 10.0 mi ESE 4.6 mph - N/A   Mostly Cloudy
2:54 AM 44.1 °F 40.1 °F 34.0 °F 68% 30.13 in 10.0 mi SE 6.9 mph - N/A   Overcast
3:54 AM 44.1 °F 42.5 °F 35.1 °F 71% 30.11 in 10.0 mi East 3.5 mph - 0.00 in Rain Light Rain
4:54 AM 43.0 °F 40.3 °F 36.0 °F 76% 30.10 in 10.0 mi East 4.6 mph - 0.00 in Rain Light Rain
5:54 AM 42.1 °F 37.7 °F 36.0 °F 79% 30.09 in 10.0 mi East 6.9 mph - 0.00 in Rain Light Rain
6:54 AM 42.1 °F 36.6 °F 37.0 °F 82% 30.09 in 7.0 mi East 9.2 mph - 0.01 in Rain Light Rain
7:54 AM 42.1 °F 36.6 °F 37.0 °F 82% 30.10 in 5.0 mi ESE 9.2 mph - 0.02 in Rain Light Rain
8:54 AM 42.1 °F 38.4 °F 37.9 °F 85% 30.10 in 8.0 mi Variable 5.8 mph - 0.00 in   Overcast
9:09 AM 42.8 °F 38.6 °F 37.4 °F 81% 30.09 in 8.0 mi East 6.9 mph - N/A   Overcast
9:54 AM 42.1 °F 36.1 °F 37.9 °F 85% 30.09 in 6.0 mi ESE 10.4 mph - N/A   Overcast
10:06 AM 42.8 °F 38.6 °F 37.4 °F 81% 30.08 in 6.0 mi ESE 6.9 mph 16.1 mph N/A   Overcast
10:47 AM 42.8 °F 40.1 °F 39.2 °F 87% 30.09 in 3.0 mi East 4.6 mph - 0.01 in Rain Light Rain
10:54 AM 42.1 °F 38.4 °F 39.0 °F 89% 30.11 in 3.0 mi ESE 5.8 mph - 0.01 in Rain Light Rain
11:01 AM 42.8 °F 38.6 °F 39.2 °F 87% 30.10 in 3.0 mi ESE 6.9 mph - 0.00 in Rain Light Rain
11:37 AM 42.8 °F 40.1 °F 39.2 °F 87% 30.10 in 3.0 mi SE 4.6 mph - 0.00 in   Overcast
11:54 AM 42.1 °F 37.7 °F 39.9 °F 92% 30.10 in 2.5 mi East 6.9 mph - 0.00 in   Overcast
12:02 PM 42.8 °F 39.3 °F 39.2 °F 87% 30.08 in 3.0 mi East 5.8 mph - N/A   Overcast
12:54 PM 43.0 °F 38.8 °F 39.9 °F 89% 30.09 in 7.0 mi East 6.9 mph - N/A   Overcast
1:09 PM 44.6 °F 40.7 °F 39.2 °F 81% 30.07 in 8.0 mi East 6.9 mph - N/A   Overcast
1:54 PM 44.1 °F 39.0 °F 39.9 °F 85% 30.08 in 8.0 mi East 9.2 mph - N/A   Overcast
2:54 PM 44.1 °F 39.0 °F 39.9 °F 85% 30.08 in 9.0 mi East 9.2 mph - N/A   Overcast
3:09 PM 44.6 °F 41.4 °F 39.2 °F 81% 30.06 in 9.0 mi ESE 5.8 mph - N/A   Overcast
3:54 PM 44.1 °F 39.5 °F 39.9 °F 85% 30.08 in 9.0 mi East 8.1 mph - N/A   Overcast
4:24 PM 44.6 °F 40.7 °F 39.2 °F 81% 30.06 in 8.0 mi East 6.9 mph - N/A   Overcast
4:54 PM 44.1 °F 39.5 °F 39.0 °F 82% 30.08 in 7.0 mi East 8.1 mph - N/A   Overcast
5:54 PM 43.0 °F 37.2 °F 39.0 °F 86% 30.10 in 8.0 mi East 10.4 mph - N/A   Overcast
6:54 PM 43.0 °F 39.5 °F 37.9 °F 82% 30.12 in 8.0 mi East 5.8 mph - N/A   Overcast
6:59 PM 42.8 °F 40.1 °F 37.4 °F 81% 30.10 in 8.0 mi East 4.6 mph - N/A   Overcast
7:40 PM 42.8 °F 40.1 °F 39.2 °F 87% 30.11 in 7.0 mi East 4.6 mph - N/A   Overcast
7:54 PM 43.0 °F 39.5 °F 39.0 °F 86% 30.12 in 7.0 mi East 5.8 mph - N/A   Overcast
8:54 PM 43.0 °F - 37.9 °F 82% 30.12 in 7.0 mi Calm Calm - N/A   Overcast
9:54 PM 43.0 °F 41.3 °F 37.9 °F 82% 30.11 in 7.0 mi ESE 3.5 mph - N/A   Overcast
10:54 PM 42.1 °F - 37.9 °F 85% 30.10 in 6.0 mi Calm Calm - N/A   Overcast
11:39 PM 42.8 °F - 39.2 °F 87% 30.09 in 5.0 mi Calm Calm - N/A   Overcast
11:50 PM 42.8 °F - 39.2 °F 87% 30.08 in 5.0 mi Calm Calm - N/A   Overcast
11:54 PM 42.1 °F - 39.0 °F 89% 30.10 in 5.0 mi Calm Calm - N/A   Overcast